Content
SEND FEEDBACK

Daily
Averages
Monthly
Summary
Mexico

JAVIER ROJO GÓMEZ - ESTE, QUINTANA ROO


Home > North America > Mexico > Quintana Roo
Elevation: 7 feet     Latitude: 18 15N     Longitude: 088 38W

WEATHER
 
SELECT A DAY
Number of Records: 124,301;   Date Range: 1/1/95 - 9/29/14
 
SHARE

PRINT THIS DATA

[ ← Previous Day ]
WEATHER ALMANAC - NOVEMBER 9, 2013
[ Next Day → ]
[ °C ]   °F
Weather ElementAverageHighLow
Temperature78.8 °F84.2 °F (10:40 am)73 °F (5:50 am)
Dewpoint73.3 °F77 °F (10:40 am)68 °F (7:00 am)
Humidity82.5 %100 % (8:50 pm)71 % (11:50 am)
Barometer29.93 in29.97 in (8:50 am)29.88 in (3:41 pm)
Wind Speed2.4 mph11.5 mph (8:45 am)
Weather ElementAverage
Visibility6.1 mi
Wind DirectionESE (126.8 °)

Weather ElementTotal
Precipitation---
Cooling Degree Days13.6 (Base 65)
Growing Degree Days28.6 (Base 50)
Averaged from 24 records on November 9, 2013
WEATHER CONDITIONS BREAKOUT
WIND DIRECTION BREAKOUT
WEATHER BY HOUR - NOVEMBER 9, 2013
[ °C ]   °F
Local TimeTemperatureDewpointHumidityBarometerVisibilityWind DirectionWind SpeedGust SpeedPrecipitationEventsConditions
5:50 AM73.0 °F72.0 °F95 %29.92 in6.0 miNW (310°)4.5 mphOvercast
7:00 AM73.4 °F68.0 °F83 %29.94 in5.0 miCalmMostly Cloudy
7:40 AM75.2 °F68.0 °F78 %29.94 in7.0 miCalmMostly Cloudy
8:45 AM78.8 °F71.6 °F78 %29.96 in7.0 miNorth (360°)11.5 mphMostly Cloudy
8:50 AM81.0 °F76.0 °F79 %29.97 in6.0 miCalmPartly Cloudy
9:00 AM81.0 °F76.0 °F79 %29.97 in6.0 mi°4.5 mphPartly Cloudy
9:43 AM82.4 °F75.2 °F79 %29.96 in7.0 miNorth (360°)11.5 mphMostly Cloudy
10:40 AM84.2 °F77.0 °F79 %29.94 in7.0 miNorth (360°)11.5 mphMostly Cloudy
11:40 AM77.0 °F71.6 °F83 %29.94 in4.0 miCalmRainRain
11:50 AM81.0 °F73.0 °F71 %29.96 in6.0 miENE (60°)2.2 mphRainHeavy Rain
12:41 PM82.4 °F75.2 °F79 %29.90 in5.0 miCalmOvercast
1:41 PM77.0 °F71.6 °F83 %29.89 in5.0 miCalmOvercast
2:41 PM78.8 °F71.6 °F78 %29.89 in5.0 miCalmOvercast
2:50 PM81.0 °F77.0 °F85 %29.90 in6.0 miNW (320°)2.2 mphRainLight Drizzle
3:41 PM78.8 °F71.6 °F78 %29.88 in7.0 miCalmOvercast
4:41 PM78.8 °F71.6 °F78 %29.90 in7.0 miCalmOvercast
5:45 PM79.0 °F77.0 °F92 %29.93 in5.0 miNorth2.2 mphRainLight Drizzle
5:54 PM78.8 °F71.6 °F78 %29.91 in7.0 miCalmOvercast
6:45 PM80.6 °F73.4 °F79 %29.93 in7.0 miCalmOvercast
7:45 PM80.6 °F73.4 °F79 %29.93 in7.0 miCalmOvercast
8:45 PM78.8 °F73.4 °F83 %29.94 in7.0 miCalmMostly Cloudy
8:50 PM76.0 °F76.0 °F100 %29.96 in5.0 miNNW (340°)2.2 mphPartly Cloudy
9:45 PM78.8 °F73.4 °F83 %29.95 in7.0 miNorth (360°)3.5 mphMostly Cloudy
11:50 PM75.0 °F75.0 °F100 %29.96 in5.0 miNW (320°)2.2 mphPartly Cloudy
Hourly data recorded from MMCM, located miles away from Javier Rojo Gómez - Este, Quintana Roo







STORIES FROM OUR PARTNERS